World > North America > United States > Ohio > Old Washington  

Old Washington, OH Hourly Weather Conditions

Feedback E-mail the Weather

Quick WX

WeatherWX.com

Old Washington, OH Weather Maps

°F °C°F °C
Old Washington Weather Map
UTC Time: 9/26/2023, 12:22
Your Time:

Old Washington, OH Regional Weather

Expires:202309261300;;029327
ASUS41 KCLE 261212
RWRCLE
OHIO REGIONAL WEATHER ROUNDUP
NATIONAL WEATHER SERVICE WILMINGTON, OH
800 AM EDT TUE SEP 26 2023

NOTE: "FAIR" INDICATES FEW OR NO CLOUDS BELOW 12,000 FEET WITH NO
SIGNIFICANT WEATHER AND/OR OBSTRUCTIONS TO VISIBILITY.


OHZ036-037-039>041-045>050-054>059-063>069-073>076-082>088-261300-
  CENTRAL AND SOUTHEAST OHIO
  
CITY           SKY/WX    TMP DP  RH WIND       PRES   REMARKS
COLUMBUS       CLOUDY    64  62  93 SE3       30.18R                  
OSU AIRPORT    CLOUDY    65  61  87 CALM      30.19R                  
BOLTON FIELD   CLOUDY    63  61  94 CALM      30.19S                  
RICKENBACK AFB CLOUDY    63  61  93 CALM      30.18R                  
NEWARK         CLOUDY    64  61  90 CALM      30.19R                  
MARION         CLOUDY    63  60  90 SE6       30.19R                  
LANCASTER      CLOUDY    63  62  97 CALM      30.20R                  
ZANESVILLE     CLOUDY    64  61  90 NE3       30.20R                  
NEW PHILLY     CLOUDY    61  59  93 E7        30.22R                  
$$
  

SKY/WX - Weather  TMP - Temperature  DP - Dew Point  RH - Humidity
WIND - Wind Direction/Speed PRES - Barometric Pressure VSB - Visibility
WCI - Wind Chill Index E13G22 Wind - East Wind 13 mph/Gusts of 22 mph

Trending Headlines

Trending Entertainment Headlines

Old Washington Radar Loop

Use the map search tool if you want to place a location marker on the radar map...

Old Washington Quick Facts

National Two Day Weather Forecast


E-mail the Old Washington Weather Forecast

Voice your opinion or tell us about page issues...